Showing default

COSMOS 2588, 64095

Orbit data source: Space-Track

COSMOS 2588, 64095 is a payload satellite owned by TS VS RF (CIS) in LEO that was launched on Fri, 23 May 2025 UTC via a SOYUZ-2-1B launch vehicle from the Plesetsk Missile And Space Complex (PKMTR). Payload-class satellites include a variety of spacecraft equipped with specific instruments for various scientific and technological missions. These include communications satellites like Starlink; space stations such as the ISS; scientific satellites like the Hubble; Earth observation satellites from companies like Planet Labs, Umbra, and HawkEye 360; GPS; miniature CubeSats for education and research; and military/defense satellites.

Loading next visibility...
Identifier
64095, 2025-109A
Orbit
LEO
Country
Flag of CISCIS
Related business
Manufacturer
Lavochkin
Mission
Operational Defense Imaging
Bus & Motor
KARAT-200, Unknown motor
Mass
~500 kg wet, ~500 kg dry
Launch date (UTC)
2025-05-23 (1 year ago)
Launch vehicle
SOYUZ-2-1B
Launch site
Plesetsk Missile And Space Complex (PKMTR)
Object type
Payload
Rocket body
Debris
Shape & HBR
Cyl + 2 Pan, 1.6 m
Radar Cross Section
3.727 m², Large (>1 m²)

Expand to show TLE details & history
Last TLE update: 8 hours ago

TLE from 8 hours ago
0 COSMOS 2588
1 64095U 25109A   26208.76431396  .00011119  00000-0  38922-3 0  9998
2 64095  72.9719 116.8330 0009738   1.6099 358.5126 15.29554813 65818
Epoch: 2026-07-27T18:20Z
TLE epoch observation values (Epoch: 2026-07-27T18:20:36.726Z)
Latitude
-0.00003°
Longitude
-103.76324°
Altitude
473.126 km
Speed
7.633 km/s
True Right ascension
07h 47m 19s
True Declination
0° 00' 00"
Sunlit
Object was in daylight at epoch
Visualization orbit readout
Latitude
Unknown
Longitude
Unknown
Altitude
Unknown
Speed
Unknown
Apparent Right ascension
Unknown
Apparent Declination
Unknown
Sunlit
N/A
Visualization observer readout
Local Sidereal Time
15:26:49
Azimuth
Unknown
Elevation
Unknown
Doppler factor
Unknown
Orbital elements
Apogee altitude
481.435 km
Perigee altitude
468.088 km
Semi-major axis
6,852.898 km
Eccentricity
0.00097
Inclination
72.9719°
RAAN
116.833°
Arg. of periapsis
1.6099°
True anomaly
358.5097°
Mean anomaly
358.5126°
Eccentric anomaly
358.51115°
Mean motion
3.82588 °/min
Orbital period
94.1 mins
BSTAR
0.00038922
Loading maneuver chart data...
Computing Atmospheric mass density...
Loading historical data...
Loading historical data...
Loading historical data...
Loading historical data...
Loading historical data...
Loading historical data...
Loading historical data...
Other satellites on launch #109 in the year 2025 (2025-05-23 UTC)

Documentation

Showing up to 5 results
|